Wetbulb
49.76 49.34 48.79 47.89 47.91 48.52 49.12 48.71 46.99 46.89 47.67 48.36 48.74 49.03 49.60 50.07 50.30 50.53 50.56 50.25 49.86 49.34 48.86 48.52 48.24 48.08 48.05 48.18 48.31 48.37 48.21 48.07 48.21 47.61 47.08 47.43 48.21 48.38 48.38 48.45 48.46 48.40 48.21 47.86 47.49 47.27 47.00 46.77 46.73 46.75 46.59 46.20 45.97 45.82 45.89 46.39 46.37 46.36 46.46 46.46 46.75 46.69 46.44 46.33 46.77 47.10 47.06 46.76 46.94
49.31 48.68 47.61 46.10 46.01 46.94 47.87 47.73 47.32 47.32 47.65 48.66 48.78 49.02 49.49 50.04 50.22 50.25 50.04 49.49 49.49 49.29 49.05 48.90 47.91 47.65 47.66 47.48 47.82 48.03 47.94 47.64 47.63 47.45 47.36 47.59 47.92 48.06 48.05 47.98 47.76 47.37 46.97 46.50 46.23 46.32 46.48 46.38 46.64 46.73 46.64 46.45 46.20 46.06 46.14 46.60 46.69 46.58 46.29 46.19 46.57 46.94 47.09 47.14 47.50 47.64 47.69 47.69 47.83
48.52 48.30 48.08 47.80 47.85 47.96 48.05 48.05 47.91 47.53 47.41 47.92 48.95 49.47 49.73 50.17 50.06 49.80 49.48 48.76 48.69 48.52 48.30 47.69 46.62 46.06 45.99 46.49 47.02 47.22 47.25 47.04 47.10 47.36 47.58 47.78 47.73 47.61 47.29 46.95 46.42 45.92 45.47 45.42 45.40 45.65 45.85 46.08 46.41 46.33 46.22 46.51 46.39 46.42 46.56 46.83 46.73 46.52 46.32 46.32 46.75 47.02 47.23 47.29 47.51 47.74 47.88 47.74 47.79
47.35 47.24 47.11 46.84 46.56 46.34 46.53 47.62 47.16 46.94 47.39 48.56 48.76 48.94 49.30 49.45 48.98 48.64 48.01 47.24 46.98 46.73 46.30 45.64 44.96 44.75 44.75 45.17 45.71 46.21 46.34 45.54 46.31 46.95 47.22 47.14 46.66 46.19 45.56 44.98 44.69 44.65 44.78 44.91 44.99 45.14 45.53 46.04 46.38 46.38 46.32 46.39 46.37 46.48 46.84 47.11 46.81 46.77 46.84 47.01 47.23 47.36 47.29 47.30 47.48 47.61 47.70 47.57 47.34
46.50 46.36 46.36 46.23 45.76 45.82 45.98 46.30 46.43 46.77 47.33 48.12 48.22 48.05 47.72 47.39 46.98 46.69 46.31 45.96 46.13 45.90 45.35 44.49 44.58 44.28 43.94 44.36 45.08 45.59 45.76 45.76 44.45 44.69 45.26 44.82 44.43 44.21 44.00 43.84 43.71 43.98 44.34 44.62 44.86 45.20 45.72 46.05 46.27 46.32 46.42 46.43 46.42 46.41 46.62 46.71 46.84 47.04 47.31 47.45 47.64 47.74 47.75 47.61 47.57 47.48 47.34 46.89 46.62
46.09 45.98 45.91 46.05 45.81 45.94 46.19 46.25 46.16 46.21 46.40 46.41 46.00 46.00 46.18 46.61 46.27 46.01 45.65 45.53 45.13 44.79 44.17 43.18 43.06 42.99 43.29 44.28 44.74 45.00 44.99 44.98 44.02 43.39 42.84 42.51 42.94 43.18 43.18 43.18 43.29 43.69 44.24 44.74 45.03 45.32 45.59 45.76 45.81 45.75 45.78 45.68 45.63 45.93 46.29 46.57 46.94 47.01 47.16 47.34 47.56 47.66 47.57 47.34 47.34 47.07 46.57 45.85 45.53
46.50 46.60 46.55 46.47 46.24 46.08 45.95 45.76 45.84 45.84 45.70 45.45 44.90 45.05 45.24 45.07 44.74 44.49 44.32 44.36 44.49 44.22 43.66 42.76 43.17 43.52 43.86 44.19 44.10 43.81 43.22 42.56 42.07 41.62 41.46 41.78 42.06 42.22 42.45 42.76 43.15 43.77 44.34 44.80 44.82 44.88 44.97 44.95 44.89 44.71 44.45 44.21 45.00 45.42 45.98 46.53 47.02 47.21 47.07 47.07 47.34 47.39 47.34 46.98 46.80 46.39 45.76 45.04 44.63
46.60 46.53 46.48 46.53 46.45 46.10 45.72 45.73 45.92 45.82 45.62 45.35 44.95 44.90 44.79 44.41 44.28 44.24 44.15 44.19 44.15 43.98 43.72 43.43 44.02 44.02 43.81 43.27 42.52 41.86 41.17 40.77 40.89 40.97 41.13 41.42 41.50 41.85 42.43 42.99 43.49 43.86 44.09 44.29 44.19 44.09 44.08 44.30 44.25 44.19 44.15 44.32 45.05 45.79 46.45 46.85 46.94 46.89 46.62 46.48 46.80 46.89 46.80 46.39 46.17 45.62 45.17 44.59 44.10
46.12 45.99 45.90 45.97 45.95 46.00 46.00 45.87 45.76 45.68 45.43 45.00 44.92 44.87 44.49 43.76 44.02 44.32 44.45 44.49 43.90 43.68 43.73 44.02 43.68 43.10 42.44 41.74 41.25 41.01 40.93 41.17 41.09 41.33 41.53 41.81 42.30 42.67 43.05 43.31 43.45 43.48 43.52 43.75 43.68 43.52 43.49 43.71 43.75 44.12 44.58 45.31 45.91 46.26 46.40 46.53 46.40 46.40 46.26 46.30 46.17 45.98 45.71 45.53 45.17 44.77 44.36 43.92 43.48
45.44 45.56 45.64 45.76 45.69 45.67 45.69 45.72 45.58 45.46 45.28 44.99 45.05 44.69 43.81 42.22 43.21 44.02 44.48 44.52 43.89 43.72 43.80 43.78 43.04 42.35 41.78 41.33 41.46 41.45 41.65 41.81 42.13 42.51 42.74 42.93 43.01 43.09 43.32 43.47 43.55 43.64 43.64 43.70 43.66 43.59 43.53 43.52 43.84 44.23 44.72 45.22 45.13 45.32 45.64 45.91 45.90 45.72 45.58 45.53 45.13 44.64 44.24 44.15 43.97 43.74 43.38 42.98 42.50
45.13 45.45 45.63 45.84 45.80 45.70 45.53 45.55 45.58 45.45 45.18 45.28 45.04 44.87 44.44 43.47 43.87 44.14 44.30 44.25 44.13 43.92 43.67 43.46 42.74 42.42 42.18 42.11 42.19 42.31 42.51 42.96 43.20 43.25 43.09 43.05 43.14 43.34 43.67 43.86 43.78 43.72 43.67 43.72 43.75 43.76 43.80 43.76 43.75 43.80 43.96 44.29 44.29 44.25 44.26 44.38 44.33 44.01 43.78 43.52 42.90 42.39 42.13 42.12 42.33 42.36 42.18 41.55 41.05
45.23 45.44 45.64 45.69 45.65 45.56 45.45 45.41 45.46 45.41 45.13 45.13 45.03 45.03 45.13 45.15 44.89 44.56 44.34 44.49 44.14 43.95 43.91 43.76 43.32 43.01 43.01 43.22 43.26 43.31 43.47 43.68 43.64 43.56 43.43 43.39 43.56 43.60 43.73 43.60 43.39 43.14 43.05 43.16 43.25 43.26 43.18 42.91 42.56 42.27 42.25 42.71 42.96 42.53 42.02 41.66 41.63 41.26 41.00 40.58 40.50 40.29 39.95 39.57 39.96 40.10 40.04 39.63 39.09
45.14 45.19 45.15 45.12 44.98 45.05 45.18 45.21 45.42 45.34 45.16 45.13 45.21 45.21 45.27 45.30 45.05 44.86 44.79 44.72 44.30 44.27 44.28 44.17 43.76 43.56 43.56 43.64 43.77 43.73 43.81 43.76 43.63 43.45 43.40 43.32 43.28 43.16 42.99 42.71 42.09 41.85 41.73 41.85 41.80 41.54 41.22 40.72 40.16 39.97 40.10 40.50 40.78 40.43 39.80 39.29 39.03 38.83 38.51 38.28 38.17 37.89 37.57 37.18 37.47 37.57 37.58 37.22 37.00
44.53 44.55 44.52 44.56 44.90 45.12 45.35 45.28 45.41 45.32 45.05 44.82 44.99 45.05 45.11 45.26 45.01 44.78 44.67 44.54 44.14 44.02 44.06 43.98 43.77 43.64 43.72 43.71 43.57 43.53 43.48 43.56 43.39 43.21 42.95 42.61 42.53 42.27 41.84 41.39 40.74 40.46 40.33 40.28 39.87 39.42 38.97 38.61 38.34 38.20 38.22 38.23 38.36 38.31 38.10 37.88 37.52 37.30 36.92 36.58 36.32 36.03 35.81 35.71 35.84 35.79 35.77 35.37 35.38
43.83 43.94 44.27 44.83 45.18 45.23 45.22 44.79 44.92 44.76 44.50 44.33 44.47 44.64 44.79 44.86 44.53 44.28 44.10 44.02 43.73 43.72 43.81 43.84 43.71 43.40 43.26 43.20 43.15 43.10 43.06 43.20 42.91 42.52 41.96 41.44 41.34 41.16 40.86 40.35 39.75 39.29 39.03 38.80 38.45 38.04 37.51 37.17 36.90 36.81 36.69 36.53 36.63 36.69 36.65 36.60 36.38 36.08 35.84 35.61 35.37 35.22 35.17 35.03 35.11 34.99 34.81 34.66 34.61
43.71 44.15 44.62 44.91 44.69 44.37 44.10 43.85 43.93 43.88 43.63 43.53 43.70 43.88 44.10 44.07 44.09 43.85 43.56 43.42 43.46 43.57 43.47 43.24 43.07 42.93 42.66 42.20 42.25 42.25 42.25 42.05 41.78 41.31 40.74 40.39 40.24 40.23 40.08 39.59 38.97 38.40 37.92 37.44 37.10 36.78 36.47 36.26 36.08 35.80 35.57 35.43 35.38 35.38 35.42 35.33 35.19 34.98 34.86 34.77 34.80 34.79 34.70 34.61 34.61 34.52 34.43 34.35 34.21
44.00 44.36 44.53 44.22 43.53 43.06 42.76 42.65 42.85 42.78 42.66 42.59 42.68 43.01 43.30 43.43 43.56 43.26 42.90 42.87 43.08 42.88 42.59 42.28 42.08 41.81 41.41 40.84 41.18 41.22 41.00 40.63 40.43 40.18 39.78 39.47 39.50 39.43 39.33 39.05 38.37 37.72 37.11 36.45 35.95 35.64 35.46 35.50 35.49 35.35 35.09 34.77 34.71 34.58 34.40 34.38 34.33 34.18 34.04 34.05 34.18 34.22 34.24 34.18 34.22 34.20 34.17 34.08 34.06
43.99 43.84 43.59 43.15 42.47 42.01 41.74 41.62 41.74 41.66 41.74 41.82 41.98 42.39 42.81 42.97 43.00 42.82 42.62 42.42 42.43 41.96 41.36 40.74 40.65 40.36 39.98 39.69 39.89 40.08 39.95 39.61 39.36 39.20 38.98 38.71 38.65 38.72 38.70 38.56 38.06 37.48 36.92 36.18 35.53 35.18 34.88 34.85 34.86 34.71 34.64 34.32 34.19 34.10 34.05 33.91 33.77 33.70 33.63 33.68 33.72 33.79 33.91 33.93 34.05 34.10 34.20 34.12 34.10
43.41 42.88 42.43 42.00 41.65 41.21 40.93 40.81 40.85 41.01 41.21 41.49 41.77 42.02 42.18 42.29 42.19 41.99 41.74 41.54 41.27 40.70 40.02 39.27 39.12 39.07 38.85 38.64 38.79 38.81 38.96 39.01 38.52 38.34 38.12 37.92 37.74 37.86 37.86 37.84 37.63 37.35 36.78 35.97 35.38 34.96 34.71 34.43 34.34 34.18 34.01 33.87 33.75 33.76 33.69 33.66 33.63 33.59 33.56 33.59 33.61 33.57 33.75 33.89 34.06 34.15 34.27 34.30 34.47
42.34 41.80 41.41 41.05 40.93 40.77 40.57 40.32 40.35 40.63 40.96 41.20 41.15 41.05 40.94 40.83 40.68 40.29 39.88 39.56 39.62 39.29 38.93 38.24 37.80 37.61 37.49 37.43 37.32 37.40 37.43 37.56 37.16 36.89 36.76 36.67 36.55 36.73 36.90 36.88 36.90 36.86 36.60 36.07 35.32 34.83 34.40 34.12 33.94 33.86 33.68 33.42 33.31 33.38 33.44 33.47 33.47 33.47 33.47 33.70 33.70 33.68 33.73 33.82 33.91 34.01 34.20 34.25 34.40
41.21 40.81 40.49 40.29 40.16 40.08 39.99 40.03 39.93 40.05 40.00 39.98 39.70 39.33 38.87 38.62 38.30 37.98 37.80 37.67 37.91 37.88 37.49 36.78 36.53 36.35 36.17 35.81 35.40 35.23 35.28 35.30 35.13 35.07 35.00 34.92 35.12 35.27 35.43 35.51 35.41 35.36 35.30 35.17 34.87 34.50 34.07 33.93 33.75 33.75 33.57 33.38 33.16 33.10 33.14 33.12 33.14 33.12 33.26 33.43 33.51 33.48 33.52 33.70 33.75 33.79 33.88 33.96 34.00
40.20 40.08 39.95 39.66 39.45 39.28 39.24 39.49 39.40 39.13 38.73 38.40 37.94 37.49 37.07 36.60 36.24 36.07 36.08 36.14 36.13 35.98 35.83 35.47 35.19 35.02 34.82 34.46 34.03 33.92 33.83 33.80 33.83 33.75 33.71 33.67 33.72 33.89 34.12 34.18 34.07 33.97 33.93 33.83 33.57 33.30 33.14 33.37 33.45 33.45 33.37 33.17 32.83 32.79 32.70 32.61 32.49 32.47 32.56 32.61 32.58 32.59 32.58 32.70 32.97 33.11 33.21 33.26 33.42
39.45 39.53 39.45 39.07 38.63 38.25 38.04 38.22 38.09 37.73 37.23 36.81 36.35 35.90 35.53 35.11 34.84 34.76 34.51 34.43 34.14 34.07 34.17 34.29 34.27 34.04 33.91 33.77 33.53 33.29 33.10 32.88 32.88 32.88 32.93 32.80 32.79 32.91 33.17 33.43 33.47 33.30 33.16 33.19 32.91 32.48 32.09 32.01 32.28 32.38 32.41 32.47 32.23 32.05 32.00 32.00 31.65 31.33 31.22 31.10 31.00 31.04 31.23 31.51 31.77 31.97 32.19 32.37 32.59
38.98 38.98 38.89 38.74 37.87 37.39 37.10 36.76 36.51 36.07 35.57 35.05 34.77 34.55 34.30 34.04 33.75 33.41 32.94 32.51 32.36 32.39 32.54 32.85 33.11 33.47 33.54 33.46 33.40 33.08 32.72 32.28 32.00 32.14 32.30 32.46 32.34 32.23 32.32 32.47 32.38 32.36 32.62 33.10 33.44 33.20 32.25 30.58 30.56 30.63 30.83 30.84 30.92 30.96 31.03 30.94 30.53 30.19 29.96 29.86 29.86 29.97 30.23 30.56 30.71 31.03 31.12 31.17 31.49
38.54 38.15 37.85 37.65 37.10 36.57 35.94 35.44 34.93 34.42 34.02 33.80 33.55 33.50 33.31 33.13 32.69 32.18 31.64 31.07 30.84 30.96 31.22 31.63 31.86 32.43 32.75 32.67 32.77 32.71 32.59 32.13 31.74 31.81 31.86 32.00 32.09 31.99 31.86 31.94 31.58 32.12 32.89 33.40 35.32 36.05 35.07 32.34 31.96 31.10 30.20 29.64 29.93 29.90 29.59 29.01 28.66 28.67 28.81 28.86 28.88 28.84 28.92 29.15 29.35 29.60 29.90 29.96 30.27
37.68 37.31 36.82 36.62 36.07 35.34 34.61 34.13 33.61 33.29 32.97 32.76 32.51 32.34 32.21 32.07 31.69 31.16 30.67 30.13 29.87 30.06 30.44 30.68 30.95 31.29 31.52 31.67 31.59 31.65 31.67 31.47 31.24 31.06 30.92 30.68 30.83 30.88 30.83 31.26 31.58 32.19 33.28 34.97 36.02 36.32 36.06 35.47 34.47 32.35 30.09 28.56 28.55 28.47 28.06 27.58 27.57 27.53 27.33 27.20 27.31 27.20 27.07 27.13 27.35 27.83 28.46 29.02 29.25
36.35 35.96 35.64 35.65 34.87 34.23 33.48 33.14 32.74 32.39 31.96 31.64 31.31 31.11 31.06 30.97 30.64 30.44 30.02 29.69 29.51 29.46 29.64 30.00 30.40 30.52 30.71 30.97 30.83 30.79 30.83 30.61 30.70 30.61 30.44 30.18 30.09 30.11 30.26 30.58 30.61 31.49 33.20 35.78 36.13 35.89 35.37 34.91 34.07 32.63 30.51 27.77 26.79 26.25 25.92 25.53 25.86 26.01 25.94 25.62 25.52 25.47 25.37 25.49 25.87 26.34 26.91 27.41 27.86
35.14 34.89 34.62 34.54 33.91 33.33 32.77 32.16 31.69 31.29 30.98 30.80 30.63 30.59 30.64 30.49 30.30 30.24 30.11 29.82 29.47 28.98 28.89 29.11 29.73 30.09 30.38 30.47 30.42 30.49 30.58 30.51 30.47 30.36 30.17 29.79 29.61 29.40 29.19 29.01 28.72 30.56 33.38 36.11 35.60 35.03 34.41 33.71 33.06 32.24 30.90 28.06 25.72 24.84 24.53 23.97 23.93 23.98 24.02 24.06 24.05 24.06 24.31 24.77 25.41 25.76 26.08 26.24 26.92
34.50 34.19 33.84 33.40 33.04 32.60 31.98 31.31 30.91 30.71 30.64 30.68 30.67 30.72 30.82 30.80 30.52 30.38 30.11 29.98 29.33 28.88 28.66 28.81 29.21 29.52 29.54 29.49 29.47 29.65 29.67 29.67 29.82 29.94 29.78 29.42 29.01 28.47 27.80 27.13 27.09 29.54 32.95 35.40 34.62 34.04 33.35 32.74 32.20 31.64 30.80 29.68 25.72 23.58 22.55 22.26 22.23 22.29 22.54 23.08 23.32 23.67 24.12 24.77 25.27 25.63 25.87 26.09 26.47
33.89 33.28 32.75 32.40 32.13 31.75 31.25 30.73 30.70 30.80 30.86 30.91 31.03 31.02 31.02 30.90 30.52 30.23 29.91 29.70 29.45 29.26 29.11 28.99 28.88 28.84 28.71 28.60 28.81 28.96 29.15 29.25 29.40 29.30 28.96 28.32 27.64 27.17 26.80 26.29 26.72 29.31 32.33 34.04 33.55 33.11 32.54 32.03 31.58 31.03 30.58 30.35 26.56 23.57 21.63 21.24 21.32 21.44 21.98 22.67 22.96 23.18 23.62 24.42 24.64 25.00 25.47 26.30 26.66
33.06 32.37 31.67 31.35 31.26 31.06 30.78 30.56 30.89 31.02 31.17 31.19 31.21 31.16 31.08 30.70 30.38 30.11 29.87 29.78 29.64 29.36 29.11 28.94 28.86 28.51 28.34 28.63 28.89 29.01 29.25 29.60 29.85 29.62 29.08 27.87 26.34 25.76 25.70 25.89 25.89 28.24 31.14 33.40 32.97 32.47 32.03 31.56 31.17 30.70 30.47 30.69 27.05 23.60 21.40 20.93 20.95 21.29 21.78 22.37 22.72 23.18 23.76 24.37 24.65 24.95 25.45 25.90 26.48
32.15 31.50 30.88 30.64 30.55 30.54 30.59 30.84 30.97 31.04 31.15 31.29 31.04 30.89 30.69 30.34 30.09 29.94 29.84 29.66 29.60 29.36 29.10 28.98 28.76 28.56 28.38 28.56 28.86 29.20 29.54 29.83 29.67 29.07 28.09 26.49 25.67 25.61 25.86 26.14 25.21 26.87 29.94 33.28 32.62 32.09 31.66 31.07 30.74 30.50 30.53 30.93 27.42 23.77 21.30 20.89 20.96 21.30 21.74 22.16 22.55 23.01 23.59 24.70 24.95 24.95 25.06 25.55 25.69
31.25 30.66 30.27 30.00 29.97 30.14 30.38 30.61 30.63 30.84 30.87 30.94 30.55 30.32 30.15 29.84 29.68 29.59 29.59 29.50 29.33 29.27 29.13 28.88 28.51 28.24 28.14 28.16 28.55 28.82 29.00 29.12 28.11 27.16 26.19 25.68 25.73 25.87 26.20 26.49 24.84 26.87 30.40 33.16 32.38 31.79 31.27 30.69 30.41 30.26 30.54 31.21 26.87 23.11 20.73 20.66 20.94 21.38 21.71 22.06 22.54 22.89 23.19 23.49 24.12 24.39 24.44 24.59 24.68
30.40 30.19 29.95 29.70 29.59 29.69 29.81 29.80 29.92 30.06 30.21 30.16 29.90 29.76 29.60 29.43 29.45 29.37 29.47 29.43 29.44 29.40 29.27 29.14 28.68 28.15 27.82 27.94 27.85 27.77 27.30 26.50 25.80 25.38 25.35 25.61 25.75 25.86 26.03 26.26 23.94 27.02 31.41 32.92 31.99 31.52 31.04 30.54 30.29 30.29 30.30 30.13 25.75 22.56 20.90 20.88 20.98 21.22 21.51 21.73 22.15 22.57 22.80 22.92 23.18 23.28 23.54 23.64 23.80
29.88 29.76 29.59 29.34 29.18 29.15 29.22 29.11 29.36 29.62 29.76 29.69 29.46 29.33 29.20 29.20 29.22 29.37 29.64 29.93 29.85 29.57 29.16 28.65 28.21 27.72 27.25 27.23 27.48 27.07 26.44 25.72 25.57 25.45 25.30 25.12 25.12 25.21 25.41 25.70 24.78 27.82 31.60 32.68 31.91 31.38 31.05 30.49 30.24 30.30 29.91 28.06 24.26 22.18 21.22 21.13 20.90 20.90 20.98 21.31 21.42 21.78 21.97 22.19 22.44 22.63 22.82 22.99 22.92
29.28 29.06 28.93 28.81 28.84 28.95 29.04 29.08 29.29 29.56 29.48 29.20 28.92 28.71 28.58 28.51 28.86 29.49 30.30 30.48 30.03 29.31 28.43 27.55 27.36 27.28 27.34 27.24 27.37 27.34 27.36 27.22 27.00 26.51 25.83 24.95 24.75 24.84 24.95 25.13 25.39 28.25 31.34 32.53 31.91 31.38 30.99 30.47 30.37 30.15 29.22 26.62 23.68 22.26 21.80 21.36 21.03 20.83 20.64 20.47 20.64 20.74 20.97 21.31 21.73 21.94 22.09 22.20 22.32
28.53 28.25 28.29 28.44 28.70 28.95 29.15 29.35 29.27 29.17 28.94 28.41 28.35 28.15 27.97 27.82 28.42 29.22 29.89 30.23 29.74 28.80 27.90 27.32 27.48 27.64 27.93 28.14 28.51 28.92 29.17 29.12 28.64 27.83 26.73 25.29 24.78 24.78 24.99 25.14 25.41 27.49 30.21 32.49 32.16 31.58 30.87 30.40 30.42 29.88 28.25 24.77 22.81 21.99 21.73 21.49 21.08 20.56 20.18 19.81 19.71 19.72 19.92 20.15 20.50 20.77 20.98 21.02 21.96
28.03 28.08 28.35 28.52 28.83 29.18 29.43 29.43 29.15 28.63 28.15 27.73 27.74 27.75 27.80 27.82 28.33 28.85 29.25 29.38 29.29 28.59 27.72 27.40 27.75 28.12 28.57 29.41 29.92 30.05 29.92 29.77 28.79 27.97 27.06 25.94 25.69 26.05 26.50 26.64 26.27 27.20 29.48 32.65 32.77 31.88 30.85 30.43 30.47 29.87 28.02 23.96 22.05 21.19 21.04 20.92 20.36 20.04 19.72 19.29 19.15 19.03 19.08 19.06 19.32 19.50 19.75 19.96 23.09
28.10 28.28 28.70 29.16 29.37 29.65 29.64 29.49 28.75 28.08 27.60 27.28 27.39 27.39 27.47 27.61 27.88 28.80 29.41 29.09 29.42 28.87 28.07 27.67 27.88 28.30 28.96 29.72 29.99 29.73 29.21 28.61 27.76 27.18 26.79 26.70 27.39 28.50 29.36 28.93 27.96 28.19 29.84 32.87 32.96 32.05 30.96 30.57 30.44 30.17 28.60 24.84 22.19 21.01 20.62 20.24 19.50 19.07 18.68 18.51 18.43 18.41 18.47 18.61 18.73 18.96 19.02 19.11 24.32
28.85 29.13 29.53 30.01 30.28 30.27 30.05 29.50 28.30 27.56 27.28 27.31 27.25 27.23 27.23 27.34 28.41 29.87 30.46 29.17 29.13 28.61 27.88 27.35 27.42 27.98 28.82 29.34 29.44 28.70 27.78 27.18 27.32 27.24 27.27 27.55 28.90 30.50 31.36 30.03 29.19 29.16 30.16 32.47 32.84 32.23 31.20 30.64 30.41 30.27 28.92 24.96 22.58 21.43 20.77 19.88 18.88 18.18 17.89 17.92 18.04 18.20 18.58 18.67 18.89 18.93 18.89 18.63 22.35
29.97 30.18 30.39 30.65 31.07 31.16 30.54 29.04 27.94 27.47 27.39 27.52 27.47 27.31 27.52 28.33 29.41 30.46 30.55 29.11 28.38 27.75 27.22 26.87 26.96 27.36 27.97 28.75 28.89 27.86 26.66 26.21 27.05 27.52 27.90 28.56 29.36 30.33 30.73 29.68 28.98 28.73 29.49 31.34 32.42 32.25 31.58 30.97 30.71 30.65 29.47 25.75 22.58 21.10 20.24 19.38 18.68 18.33 18.07 18.07 18.28 18.83 19.16 18.98 19.11 19.23 19.26 19.14 20.20
MSLP
1018.30 1018.42 1018.50 1018.54 1018.58 1018.58 1018.58 1018.58 1018.58 1018.58 1018.54 1018.50 1018.50 1018.42 1018.30 1018.22 1018.14 1018.02 1017.94 1017.86 1017.86 1017.78 1017.74 1017.74 1017.70 1017.70 1017.62 1017.58 1017.62 1017.62 1017.58 1017.50 1017.50 1017.46 1017.42 1017.42 1017.38 1017.38 1017.30 1017.26 1017.18 1017.14 1017.10 1017.02 1017.02 1016.98 1016.90 1016.78 1016.70 1016.58 1016.54 1016.46 1016.42 1016.34 1016.26 1016.10 1015.98 1015.82 1015.70 1015.62 1015.58 1015.46 1015.42 1015.42 1015.42 1015.42 1015.46 1015.58 1015.78
1018.50 1018.54 1018.58 1018.62 1018.62 1018.62 1018.58 1018.62 1018.58 1018.58 1018.54 1018.46 1018.46 1018.42 1018.34 1018.30 1018.26 1018.18 1018.14 1018.10 1018.06 1018.02 1017.98 1017.98 1017.98 1017.90 1017.82 1017.74 1017.74 1017.74 1017.70 1017.66 1017.62 1017.58 1017.46 1017.42 1017.38 1017.38 1017.34 1017.30 1017.26 1017.22 1017.18 1017.14 1017.10 1017.02 1016.94 1016.86 1016.78 1016.70 1016.62 1016.50 1016.42 1016.30 1016.14 1015.98 1015.86 1015.70 1015.58 1015.54 1015.42 1015.34 1015.30 1015.30 1015.30 1015.26 1015.30 1015.42 1015.58
1018.62 1018.62 1018.62 1018.62 1018.70 1018.66 1018.70 1018.74 1018.70 1018.66 1018.58 1018.50 1018.42 1018.42 1018.38 1018.38 1018.38 1018.34 1018.34 1018.30 1018.22 1018.14 1018.18 1018.18 1018.14 1018.06 1017.98 1017.86 1017.82 1017.78 1017.74 1017.70 1017.62 1017.58 1017.50 1017.46 1017.42 1017.42 1017.42 1017.38 1017.34 1017.30 1017.30 1017.22 1017.18 1017.10 1016.98 1016.94 1016.86 1016.78 1016.70 1016.58 1016.50 1016.38 1016.22 1016.02 1015.86 1015.74 1015.66 1015.54 1015.42 1015.34 1015.30 1015.30 1015.30 1015.34 1015.38 1015.38 1015.42
1018.70 1018.70 1018.70 1018.78 1018.82 1018.86 1018.86 1018.78 1018.74 1018.70 1018.62 1018.54 1018.42 1018.42 1018.42 1018.42 1018.42 1018.42 1018.34 1018.34 1018.30 1018.30 1018.34 1018.34 1018.22 1018.14 1018.06 1017.98 1017.86 1017.82 1017.74 1017.70 1017.66 1017.66 1017.62 1017.58 1017.58 1017.54 1017.54 1017.46 1017.42 1017.38 1017.30 1017.26 1017.22 1017.14 1017.02 1016.94 1016.86 1016.82 1016.74 1016.66 1016.58 1016.42 1016.30 1016.10 1015.98 1015.86 1015.78 1015.62 1015.50 1015.42 1015.38 1015.38 1015.46 1015.62 1015.62 1015.46 1015.42
1018.78 1018.82 1018.82 1018.86 1018.86 1018.86 1018.82 1018.78 1018.74 1018.66 1018.58 1018.50 1018.50 1018.50 1018.46 1018.46 1018.42 1018.42 1018.42 1018.42 1018.42 1018.42 1018.42 1018.34 1018.30 1018.18 1018.06 1018.02 1017.94 1017.86 1017.82 1017.78 1017.82 1017.82 1017.78 1017.74 1017.70 1017.70 1017.58 1017.54 1017.50 1017.42 1017.34 1017.26 1017.18 1017.10 1016.98 1016.90 1016.86 1016.74 1016.66 1016.58 1016.50 1016.34 1016.22 1016.14 1016.02 1015.90 1015.78 1015.66 1015.62 1015.58 1015.54 1015.58 1015.66 1015.70 1015.66 1015.50 1015.50
1018.90 1018.86 1018.82 1018.82 1018.82 1018.78 1018.74 1018.70 1018.70 1018.62 1018.58 1018.50 1018.58 1018.58 1018.58 1018.54 1018.54 1018.54 1018.50 1018.50 1018.50 1018.50 1018.46 1018.42 1018.34 1018.26 1018.14 1018.10 1018.06 1018.02 1017.98 1017.94 1017.94 1017.94 1017.90 1017.86 1017.82 1017.74 1017.70 1017.62 1017.58 1017.46 1017.38 1017.26 1017.14 1017.02 1016.94 1016.86 1016.78 1016.66 1016.54 1016.42 1016.34 1016.22 1016.14 1016.06 1016.02 1015.90 1015.78 1015.66 1015.58 1015.58 1015.66 1015.70 1015.70 1015.62 1015.54 1015.46 1015.46
1018.94 1018.90 1018.86 1018.82 1018.82 1018.78 1018.74 1018.70 1018.62 1018.58 1018.58 1018.58 1018.62 1018.70 1018.70 1018.66 1018.66 1018.66 1018.62 1018.58 1018.58 1018.58 1018.58 1018.50 1018.46 1018.42 1018.34 1018.30 1018.26 1018.22 1018.14 1018.14 1018.14 1018.10 1018.02 1017.98 1017.90 1017.86 1017.78 1017.70 1017.58 1017.46 1017.34 1017.22 1017.10 1016.98 1016.94 1016.86 1016.74 1016.58 1016.46 1016.42 1016.34 1016.30 1016.26 1016.26 1016.18 1016.10 1015.98 1015.82 1015.70 1015.66 1015.66 1015.58 1015.58 1015.58 1015.50 1015.42 1015.46
1018.98 1018.94 1018.94 1018.90 1018.86 1018.78 1018.74 1018.70 1018.66 1018.62 1018.66 1018.70 1018.74 1018.82 1018.86 1018.86 1018.86 1018.82 1018.82 1018.78 1018.82 1018.82 1018.74 1018.70 1018.66 1018.58 1018.58 1018.54 1018.46 1018.42 1018.38 1018.30 1018.26 1018.22 1018.14 1018.10 1018.02 1017.90 1017.78 1017.70 1017.58 1017.46 1017.34 1017.26 1017.14 1017.02 1016.94 1016.86 1016.70 1016.62 1016.58 1016.58 1016.58 1016.54 1016.46 1016.42 1016.38 1016.30 1016.14 1016.02 1015.86 1015.78 1015.70 1015.58 1015.54 1015.58 1015.58 1015.66 1015.74
1019.06 1019.02 1018.98 1018.90 1018.86 1018.82 1018.78 1018.78 1018.78 1018.86 1018.90 1018.98 1018.98 1018.98 1018.98 1019.02 1019.06 1019.10 1019.14 1019.14 1019.14 1019.06 1019.02 1018.98 1018.94 1018.86 1018.78 1018.70 1018.70 1018.62 1018.58 1018.46 1018.42 1018.38 1018.30 1018.22 1018.14 1018.02 1017.90 1017.78 1017.66 1017.54 1017.42 1017.34 1017.26 1017.14 1016.98 1016.82 1016.74 1016.74 1016.82 1016.82 1016.74 1016.66 1016.58 1016.46 1016.42 1016.38 1016.30 1016.18 1016.14 1016.22 1016.18 1015.98 1015.74 1015.70 1015.82 1015.98 1016.14
1019.18 1019.14 1019.02 1018.98 1018.90 1018.86 1018.86 1018.90 1018.98 1019.10 1019.18 1019.26 1019.26 1019.22 1019.22 1019.30 1019.34 1019.42 1019.42 1019.46 1019.38 1019.34 1019.34 1019.30 1019.22 1019.10 1019.02 1018.98 1018.90 1018.86 1018.78 1018.70 1018.62 1018.58 1018.50 1018.42 1018.34 1018.22 1018.14 1018.02 1017.86 1017.74 1017.62 1017.46 1017.34 1017.18 1017.02 1016.98 1016.98 1017.02 1017.02 1016.98 1016.86 1016.74 1016.66 1016.58 1016.54 1016.50 1016.54 1016.50 1016.46 1016.46 1016.42 1016.22 1016.02 1015.98 1016.02 1016.18 1016.42
1019.26 1019.14 1019.06 1019.02 1018.98 1019.02 1019.06 1019.14 1019.26 1019.34 1019.42 1019.46 1019.42 1019.42 1019.42 1019.54 1019.62 1019.70 1019.70 1019.70 1019.66 1019.62 1019.58 1019.54 1019.42 1019.34 1019.30 1019.26 1019.14 1019.06 1018.94 1018.86 1018.82 1018.78 1018.78 1018.70 1018.66 1018.58 1018.42 1018.34 1018.22 1018.06 1017.86 1017.70 1017.54 1017.38 1017.30 1017.30 1017.34 1017.30 1017.18 1017.10 1016.98 1016.86 1016.86 1016.82 1016.82 1016.82 1016.82 1016.78 1016.66 1016.50 1016.42 1016.38 1016.30 1016.30 1016.38 1016.46 1016.58
1019.26 1019.18 1019.14 1019.14 1019.18 1019.26 1019.30 1019.38 1019.50 1019.58 1019.62 1019.66 1019.70 1019.70 1019.70 1019.82 1019.90 1019.94 1019.94 1019.90 1019.94 1019.94 1019.86 1019.78 1019.70 1019.66 1019.58 1019.46 1019.38 1019.26 1019.14 1019.02 1018.98 1018.98 1018.98 1018.98 1018.94 1018.90 1018.82 1018.70 1018.54 1018.38 1018.18 1018.02 1017.86 1017.78 1017.74 1017.78 1017.70 1017.58 1017.42 1017.30 1017.26 1017.22 1017.18 1017.22 1017.18 1017.18 1017.14 1017.02 1016.86 1016.74 1016.70 1016.78 1016.86 1016.90 1016.94 1016.98 1016.90
1019.30 1019.30 1019.30 1019.38 1019.42 1019.46 1019.54 1019.58 1019.70 1019.82 1019.86 1019.94 1020.02 1020.02 1020.06 1020.10 1020.14 1020.18 1020.18 1020.18 1020.18 1020.18 1020.14 1020.06 1019.98 1019.90 1019.86 1019.74 1019.62 1019.50 1019.34 1019.22 1019.18 1019.18 1019.18 1019.22 1019.26 1019.22 1019.14 1018.98 1018.86 1018.70 1018.58 1018.46 1018.42 1018.38 1018.34 1018.30 1018.14 1017.94 1017.78 1017.66 1017.62 1017.62 1017.62 1017.62 1017.62 1017.62 1017.58 1017.46 1017.30 1017.30 1017.30 1017.38 1017.42 1017.46 1017.46 1017.42 1017.30
1019.42 1019.46 1019.54 1019.58 1019.62 1019.70 1019.82 1019.90 1019.98 1020.10 1020.22 1020.30 1020.34 1020.38 1020.38 1020.38 1020.42 1020.42 1020.42 1020.46 1020.42 1020.42 1020.38 1020.30 1020.18 1020.14 1020.14 1020.02 1019.90 1019.74 1019.58 1019.46 1019.38 1019.38 1019.42 1019.46 1019.50 1019.50 1019.42 1019.30 1019.22 1019.14 1019.02 1019.02 1019.02 1018.98 1018.94 1018.86 1018.70 1018.54 1018.30 1018.14 1018.10 1018.02 1018.02 1018.02 1018.06 1018.06 1018.02 1017.98 1017.86 1017.86 1017.86 1017.86 1017.86 1017.86 1017.82 1017.70 1017.58
1019.62 1019.70 1019.74 1019.82 1019.90 1020.02 1020.14 1020.30 1020.34 1020.42 1020.54 1020.58 1020.62 1020.66 1020.62 1020.62 1020.66 1020.66 1020.66 1020.70 1020.70 1020.70 1020.62 1020.54 1020.42 1020.42 1020.42 1020.30 1020.14 1020.02 1019.86 1019.70 1019.70 1019.70 1019.70 1019.70 1019.70 1019.70 1019.62 1019.58 1019.54 1019.46 1019.42 1019.42 1019.42 1019.42 1019.42 1019.34 1019.22 1019.06 1018.86 1018.70 1018.58 1018.42 1018.38 1018.38 1018.42 1018.42 1018.42 1018.42 1018.30 1018.30 1018.26 1018.18 1018.10 1018.02 1017.94 1017.82 1017.70
1019.86 1019.90 1019.98 1020.10 1020.26 1020.38 1020.50 1020.62 1020.70 1020.78 1020.86 1020.86 1020.94 1020.90 1020.90 1020.86 1020.86 1020.86 1020.86 1020.90 1020.86 1020.86 1020.86 1020.82 1020.74 1020.70 1020.62 1020.54 1020.42 1020.26 1020.14 1020.06 1020.02 1020.02 1020.02 1019.98 1019.90 1019.86 1019.82 1019.78 1019.78 1019.78 1019.70 1019.70 1019.66 1019.66 1019.66 1019.62 1019.54 1019.42 1019.26 1019.14 1018.94 1018.78 1018.66 1018.58 1018.58 1018.58 1018.62 1018.66 1018.62 1018.54 1018.42 1018.34 1018.22 1018.10 1017.98 1017.86 1017.78
1020.14 1020.18 1020.30 1020.42 1020.58 1020.70 1020.86 1020.94 1021.02 1021.06 1021.14 1021.14 1021.14 1021.14 1021.14 1021.10 1021.02 1021.02 1021.10 1021.14 1021.14 1021.14 1021.10 1021.06 1020.98 1020.90 1020.82 1020.70 1020.58 1020.46 1020.42 1020.34 1020.34 1020.30 1020.30 1020.26 1020.18 1020.10 1020.02 1019.98 1020.02 1019.98 1019.90 1019.86 1019.82 1019.78 1019.74 1019.70 1019.66 1019.58 1019.42 1019.30 1019.14 1018.98 1018.86 1018.78 1018.74 1018.74 1018.78 1018.78 1018.74 1018.70 1018.58 1018.42 1018.30 1018.18 1018.06 1017.98 1017.86
1020.42 1020.58 1020.66 1020.74 1020.90 1021.02 1021.14 1021.18 1021.26 1021.30 1021.34 1021.38 1021.38 1021.34 1021.30 1021.26 1021.26 1021.30 1021.30 1021.34 1021.34 1021.34 1021.30 1021.26 1021.18 1021.10 1020.94 1020.78 1020.70 1020.66 1020.62 1020.58 1020.58 1020.58 1020.54 1020.46 1020.42 1020.30 1020.22 1020.14 1020.14 1020.06 1020.02 1019.94 1019.90 1019.86 1019.82 1019.70 1019.66 1019.54 1019.42 1019.30 1019.18 1019.06 1018.98 1018.90 1018.86 1018.90 1018.90 1018.90 1018.90 1018.82 1018.70 1018.58 1018.42 1018.30 1018.14 1018.02 1017.94
1020.74 1020.86 1020.94 1021.02 1021.14 1021.26 1021.30 1021.42 1021.42 1021.46 1021.50 1021.54 1021.50 1021.50 1021.46 1021.46 1021.46 1021.50 1021.50 1021.46 1021.50 1021.46 1021.42 1021.38 1021.30 1021.14 1021.06 1020.94 1020.86 1020.82 1020.82 1020.78 1020.70 1020.70 1020.62 1020.58 1020.50 1020.42 1020.34 1020.26 1020.18 1020.14 1020.06 1020.02 1019.98 1019.90 1019.82 1019.74 1019.62 1019.50 1019.38 1019.30 1019.18 1019.10 1018.98 1018.98 1018.98 1018.98 1018.98 1018.98 1018.94 1018.86 1018.78 1018.66 1018.50 1018.34 1018.22 1018.10 1017.94
1021.02 1021.10 1021.18 1021.30 1021.34 1021.42 1021.46 1021.58 1021.58 1021.62 1021.62 1021.58 1021.62 1021.62 1021.62 1021.62 1021.58 1021.62 1021.66 1021.62 1021.62 1021.58 1021.50 1021.42 1021.38 1021.30 1021.18 1021.10 1021.06 1021.02 1020.98 1020.98 1020.90 1020.82 1020.74 1020.66 1020.58 1020.54 1020.42 1020.34 1020.30 1020.22 1020.14 1020.10 1020.02 1019.94 1019.86 1019.74 1019.66 1019.54 1019.42 1019.30 1019.18 1019.14 1019.06 1019.02 1019.02 1018.98 1018.98 1018.94 1018.86 1018.82 1018.70 1018.58 1018.42 1018.30 1018.14 1018.02 1017.86
1021.22 1021.30 1021.38 1021.42 1021.50 1021.58 1021.66 1021.70 1021.70 1021.70 1021.70 1021.70 1021.70 1021.70 1021.70 1021.70 1021.70 1021.70 1021.74 1021.74 1021.70 1021.62 1021.58 1021.54 1021.46 1021.42 1021.34 1021.30 1021.30 1021.22 1021.18 1021.14 1021.06 1020.98 1020.86 1020.78 1020.70 1020.62 1020.54 1020.42 1020.38 1020.30 1020.22 1020.14 1020.06 1019.98 1019.86 1019.78 1019.70 1019.58 1019.50 1019.42 1019.30 1019.22 1019.14 1019.14 1019.10 1019.02 1018.98 1018.90 1018.82 1018.70 1018.58 1018.42 1018.30 1018.18 1018.06 1017.94 1017.86
1021.42 1021.42 1021.50 1021.58 1021.70 1021.74 1021.78 1021.78 1021.78 1021.82 1021.82 1021.82 1021.82 1021.78 1021.78 1021.78 1021.78 1021.78 1021.78 1021.74 1021.70 1021.70 1021.66 1021.66 1021.62 1021.58 1021.50 1021.46 1021.42 1021.38 1021.30 1021.26 1021.14 1021.06 1020.98 1020.86 1020.74 1020.66 1020.58 1020.46 1020.42 1020.30 1020.22 1020.14 1020.06 1019.98 1019.86 1019.82 1019.70 1019.66 1019.58 1019.54 1019.46 1019.38 1019.30 1019.26 1019.18 1019.14 1019.02 1018.90 1018.78 1018.66 1018.54 1018.38 1018.26 1018.14 1018.02 1017.86 1017.78
1021.46 1021.54 1021.62 1021.78 1021.86 1021.90 1021.90 1021.94 1021.90 1021.90 1021.90 1021.90 1021.86 1021.86 1021.86 1021.86 1021.86 1021.82 1021.82 1021.82 1021.78 1021.78 1021.78 1021.78 1021.74 1021.70 1021.62 1021.58 1021.50 1021.42 1021.38 1021.30 1021.22 1021.14 1020.98 1020.86 1020.78 1020.70 1020.58 1020.46 1020.38 1020.30 1020.22 1020.14 1020.02 1019.94 1019.90 1019.86 1019.86 1019.78 1019.70 1019.66 1019.58 1019.54 1019.42 1019.34 1019.30 1019.18 1019.06 1018.98 1018.82 1018.66 1018.54 1018.42 1018.26 1018.14 1018.02 1017.90 1017.78
1021.58 1021.70 1021.86 1021.94 1021.98 1022.02 1022.02 1022.06 1022.02 1022.02 1022.02 1022.02 1022.02 1021.94 1021.90 1021.90 1021.86 1021.86 1021.86 1021.86 1021.86 1021.86 1021.86 1021.82 1021.82 1021.78 1021.70 1021.58 1021.54 1021.46 1021.42 1021.34 1021.26 1021.14 1021.02 1020.86 1020.78 1020.66 1020.58 1020.50 1020.38 1020.30 1020.18 1020.06 1019.94 1019.90 1019.94 1019.98 1019.98 1019.90 1019.86 1019.78 1019.70 1019.66 1019.58 1019.46 1019.42 1019.30 1019.14 1019.02 1018.86 1018.74 1018.58 1018.46 1018.34 1018.22 1018.14 1017.98 1017.86
1021.78 1021.90 1022.02 1022.10 1022.10 1022.14 1022.14 1022.14 1022.14 1022.14 1022.14 1022.14 1022.06 1022.02 1022.02 1021.98 1021.94 1021.94 1021.94 1021.94 1021.90 1021.86 1021.86 1021.86 1021.86 1021.78 1021.70 1021.58 1021.50 1021.42 1021.38 1021.30 1021.30 1021.18 1021.06 1020.90 1020.78 1020.70 1020.58 1020.46 1020.38 1020.30 1020.18 1020.02 1019.90 1019.86 1019.94 1020.10 1020.10 1020.06 1020.02 1019.94 1019.86 1019.74 1019.66 1019.58 1019.50 1019.38 1019.26 1019.14 1018.98 1018.86 1018.70 1018.58 1018.46 1018.34 1018.22 1018.14 1018.02
1022.02 1022.14 1022.18 1022.22 1022.26 1022.26 1022.26 1022.26 1022.26 1022.26 1022.26 1022.18 1022.14 1022.10 1022.06 1022.02 1022.02 1022.02 1022.02 1022.02 1022.02 1021.94 1021.90 1021.86 1021.86 1021.78 1021.70 1021.58 1021.54 1021.42 1021.34 1021.30 1021.22 1021.18 1021.10 1020.98 1020.86 1020.70 1020.58 1020.46 1020.42 1020.34 1020.26 1020.14 1020.02 1020.02 1020.10 1020.14 1020.14 1020.10 1020.06 1019.98 1019.90 1019.82 1019.74 1019.66 1019.58 1019.46 1019.38 1019.30 1019.14 1019.02 1018.86 1018.74 1018.58 1018.46 1018.34 1018.22 1018.06
1022.30 1022.34 1022.38 1022.34 1022.34 1022.34 1022.34 1022.34 1022.30 1022.30 1022.30 1022.26 1022.22 1022.18 1022.14 1022.10 1022.10 1022.10 1022.10 1022.06 1022.02 1021.98 1021.90 1021.86 1021.82 1021.74 1021.70 1021.58 1021.54 1021.46 1021.38 1021.26 1021.18 1021.10 1021.02 1020.98 1020.86 1020.70 1020.58 1020.50 1020.46 1020.42 1020.34 1020.22 1020.14 1020.14 1020.18 1020.14 1020.10 1020.02 1020.02 1020.02 1019.94 1019.86 1019.82 1019.70 1019.62 1019.54 1019.42 1019.38 1019.30 1019.14 1019.06 1018.94 1018.78 1018.62 1018.46 1018.30 1018.14
1022.46 1022.46 1022.46 1022.42 1022.42 1022.42 1022.42 1022.42 1022.38 1022.38 1022.38 1022.34 1022.30 1022.26 1022.18 1022.14 1022.14 1022.14 1022.14 1022.10 1022.06 1022.02 1021.94 1021.86 1021.78 1021.70 1021.62 1021.58 1021.50 1021.42 1021.30 1021.18 1021.14 1021.02 1020.98 1020.90 1020.82 1020.74 1020.66 1020.58 1020.58 1020.46 1020.38 1020.30 1020.26 1020.18 1020.14 1020.06 1020.02 1019.98 1019.94 1019.94 1019.94 1019.86 1019.86 1019.74 1019.66 1019.58 1019.50 1019.42 1019.38 1019.30 1019.18 1019.02 1018.90 1018.78 1018.62 1018.46 1018.26
1022.58 1022.58 1022.54 1022.58 1022.58 1022.54 1022.50 1022.50 1022.46 1022.46 1022.42 1022.38 1022.30 1022.26 1022.18 1022.14 1022.14 1022.14 1022.14 1022.10 1022.06 1022.02 1021.94 1021.86 1021.70 1021.66 1021.58 1021.54 1021.42 1021.34 1021.22 1021.14 1021.02 1020.98 1020.94 1020.86 1020.82 1020.74 1020.70 1020.62 1020.58 1020.46 1020.34 1020.30 1020.26 1020.18 1020.10 1020.02 1020.02 1019.94 1019.90 1019.86 1019.94 1019.90 1019.82 1019.74 1019.70 1019.62 1019.58 1019.46 1019.38 1019.30 1019.22 1019.10 1018.98 1018.86 1018.74 1018.58 1018.42
1022.66 1022.66 1022.66 1022.62 1022.62 1022.62 1022.58 1022.58 1022.58 1022.54 1022.46 1022.42 1022.34 1022.30 1022.26 1022.18 1022.18 1022.18 1022.14 1022.10 1022.06 1022.02 1021.90 1021.78 1021.70 1021.66 1021.58 1021.46 1021.38 1021.30 1021.18 1021.06 1020.94 1020.86 1020.86 1020.86 1020.86 1020.82 1020.70 1020.58 1020.50 1020.42 1020.30 1020.26 1020.18 1020.14 1020.10 1020.06 1020.02 1019.98 1019.94 1019.86 1019.90 1019.86 1019.82 1019.74 1019.70 1019.66 1019.58 1019.46 1019.42 1019.34 1019.26 1019.14 1019.06 1018.98 1018.86 1018.66 1018.50
1022.70 1022.70 1022.70 1022.70 1022.70 1022.70 1022.70 1022.66 1022.58 1022.54 1022.50 1022.42 1022.38 1022.30 1022.30 1022.22 1022.22 1022.14 1022.10 1022.02 1021.98 1021.86 1021.78 1021.70 1021.70 1021.66 1021.58 1021.42 1021.34 1021.26 1021.14 1021.02 1020.94 1020.86 1020.86 1020.86 1020.86 1020.74 1020.58 1020.46 1020.42 1020.34 1020.26 1020.18 1020.14 1020.06 1020.02 1020.02 1019.98 1019.98 1019.94 1019.90 1019.90 1019.90 1019.86 1019.74 1019.70 1019.66 1019.58 1019.50 1019.42 1019.38 1019.30 1019.14 1019.10 1019.02 1018.90 1018.78 1018.62
1022.78 1022.82 1022.82 1022.82 1022.82 1022.82 1022.74 1022.70 1022.66 1022.58 1022.54 1022.42 1022.42 1022.34 1022.30 1022.26 1022.22 1022.14 1022.02 1021.94 1021.86 1021.78 1021.74 1021.70 1021.70 1021.62 1021.54 1021.42 1021.30 1021.18 1021.10 1020.98 1020.94 1020.90 1020.86 1020.86 1020.78 1020.62 1020.50 1020.42 1020.38 1020.30 1020.22 1020.14 1020.10 1020.02 1020.02 1019.98 1019.98 1019.98 1019.98 1019.90 1019.98 1019.98 1019.90 1019.78 1019.74 1019.70 1019.62 1019.54 1019.46 1019.42 1019.30 1019.22 1019.14 1019.10 1018.98 1018.90 1018.82
1022.86 1022.90 1022.90 1022.90 1022.90 1022.86 1022.82 1022.74 1022.70 1022.62 1022.58 1022.46 1022.42 1022.34 1022.30 1022.22 1022.14 1022.02 1021.94 1021.86 1021.78 1021.78 1021.74 1021.70 1021.70 1021.62 1021.54 1021.42 1021.30 1021.14 1021.06 1020.98 1020.94 1020.86 1020.82 1020.70 1020.62 1020.54 1020.42 1020.34 1020.34 1020.30 1020.18 1020.10 1020.06 1020.02 1020.02 1019.98 1019.98 1019.98 1019.98 1019.94 1020.02 1020.06 1020.02 1019.86 1019.78 1019.70 1019.66 1019.58 1019.50 1019.42 1019.34 1019.30 1019.22 1019.14 1019.10 1019.02 1018.94
1022.98 1022.98 1022.98 1022.98 1022.98 1022.94 1022.86 1022.82 1022.70 1022.66 1022.58 1022.50 1022.42 1022.38 1022.30 1022.22 1022.14 1022.06 1021.94 1021.82 1021.74 1021.74 1021.70 1021.66 1021.58 1021.54 1021.42 1021.34 1021.22 1021.14 1021.14 1021.02 1020.98 1020.86 1020.74 1020.62 1020.54 1020.46 1020.38 1020.30 1020.30 1020.22 1020.14 1020.10 1020.06 1020.02 1020.02 1019.98 1019.98 1019.94 1019.90 1019.90 1020.02 1020.02 1020.02 1019.90 1019.86 1019.82 1019.74 1019.66 1019.54 1019.42 1019.38 1019.30 1019.26 1019.18 1019.14 1019.10 1018.98
1023.02 1023.06 1023.06 1023.02 1022.98 1022.98 1022.90 1022.82 1022.70 1022.66 1022.58 1022.58 1022.50 1022.42 1022.30 1022.26 1022.18 1022.06 1021.90 1021.78 1021.74 1021.74 1021.70 1021.62 1021.54 1021.46 1021.42 1021.30 1021.18 1021.14 1021.14 1021.06 1020.98 1020.90 1020.78 1020.70 1020.58 1020.50 1020.42 1020.30 1020.26 1020.14 1020.06 1020.02 1020.02 1019.98 1019.98 1019.98 1019.98 1019.90 1019.90 1019.90 1019.94 1019.94 1019.90 1019.90 1019.90 1019.86 1019.82 1019.70 1019.58 1019.50 1019.42 1019.34 1019.30 1019.26 1019.18 1019.14 1019.10
1023.06 1023.10 1023.10 1023.10 1023.02 1022.98 1022.90 1022.82 1022.74 1022.70 1022.62 1022.62 1022.58 1022.46 1022.38 1022.26 1022.14 1022.02 1021.86 1021.78 1021.78 1021.78 1021.74 1021.66 1021.58 1021.54 1021.46 1021.42 1021.30 1021.22 1021.14 1021.14 1021.02 1020.98 1020.86 1020.78 1020.70 1020.58 1020.50 1020.38 1020.30 1020.14 1020.02 1019.98 1019.94 1019.94 1019.98 1020.02 1020.02 1020.02 1019.98 1019.98 1019.94 1019.90 1019.86 1019.86 1019.86 1019.86 1019.82 1019.74 1019.66 1019.58 1019.50 1019.42 1019.34 1019.30 1019.26 1019.14 1019.14
1023.06 1023.10 1023.10 1023.10 1023.02 1022.98 1022.86 1022.82 1022.74 1022.70 1022.70 1022.66 1022.58 1022.46 1022.38 1022.26 1022.14 1021.98 1021.86 1021.82 1021.78 1021.82 1021.78 1021.70 1021.66 1021.62 1021.58 1021.54 1021.42 1021.30 1021.22 1021.14 1021.14 1021.06 1020.98 1020.94 1020.86 1020.74 1020.62 1020.54 1020.42 1020.30 1020.14 1020.02 1020.02 1020.02 1020.06 1020.10 1020.14 1020.14 1020.10 1020.10 1020.02 1020.02 1019.94 1019.90 1019.86 1019.86 1019.82 1019.74 1019.70 1019.62 1019.58 1019.46 1019.42 1019.34 1019.30 1019.22 1019.14
1023.02 1023.02 1023.02 1023.02 1022.98 1022.94 1022.86 1022.78 1022.74 1022.70 1022.70 1022.66 1022.54 1022.42 1022.30 1022.18 1022.10 1022.02 1021.90 1021.86 1021.82 1021.86 1021.86 1021.82 1021.78 1021.70 1021.62 1021.58 1021.50 1021.42 1021.30 1021.30 1021.26 1021.22 1021.14 1021.10 1020.98 1020.90 1020.82 1020.74 1020.70 1020.58 1020.42 1020.18 1020.14 1020.14 1020.22 1020.26 1020.26 1020.22 1020.18 1020.18 1020.18 1020.14 1020.06 1020.02 1019.98 1019.90 1019.86 1019.82 1019.78 1019.70 1019.62 1019.54 1019.46 1019.42 1019.34 1019.26 1019.10
1022.98 1022.98 1022.94 1022.94 1022.90 1022.86 1022.82 1022.78 1022.74 1022.70 1022.62 1022.58 1022.46 1022.34 1022.26 1022.14 1022.10 1022.02 1021.90 1021.86 1021.86 1021.86 1021.90 1021.90 1021.86 1021.74 1021.66 1021.58 1021.58 1021.58 1021.50 1021.46 1021.42 1021.38 1021.30 1021.26 1021.14 1021.02 1020.98 1020.98 1020.94 1020.82 1020.62 1020.42 1020.34 1020.34 1020.34 1020.34 1020.30 1020.22 1020.18 1020.22 1020.22 1020.18 1020.14 1020.14 1020.06 1020.02 1019.98 1019.94 1019.86 1019.78 1019.70 1019.58 1019.50 1019.42 1019.38 1019.26 1018.98
1022.94 1022.90 1022.86 1022.86 1022.82 1022.78 1022.74 1022.70 1022.70 1022.66 1022.58 1022.42 1022.38 1022.30 1022.22 1022.10 1022.02 1021.94 1021.86 1021.86 1021.86 1021.86 1021.90 1021.90 1021.90 1021.82 1021.74 1021.70 1021.70 1021.70 1021.70 1021.66 1021.58 1021.50 1021.46 1021.42 1021.26 1021.14 1021.14 1021.10 1021.02 1020.94 1020.74 1020.58 1020.46 1020.42 1020.38 1020.30 1020.22 1020.14 1020.14 1020.22 1020.22 1020.18 1020.18 1020.18 1020.14 1020.14 1020.10 1020.02 1019.94 1019.86 1019.70 1019.58 1019.50 1019.42 1019.34 1019.18 1018.98
1022.86 1022.82 1022.74 1022.74 1022.70 1022.66 1022.66 1022.66 1022.62 1022.50 1022.42 1022.34 1022.30 1022.22 1022.14 1022.02 1021.94 1021.86 1021.86 1021.86 1021.90 1021.94 1021.94 1021.94 1021.94 1021.90 1021.86 1021.82 1021.82 1021.86 1021.86 1021.82 1021.70 1021.62 1021.58 1021.46 1021.42 1021.30 1021.26 1021.14 1021.10 1020.98 1020.82 1020.62 1020.46 1020.38 1020.34 1020.30 1020.18 1020.14 1020.14 1020.22 1020.26 1020.26 1020.30 1020.30 1020.26 1020.22 1020.14 1020.06 1019.98 1019.86 1019.74 1019.62 1019.50 1019.38 1019.30 1019.14 1018.98
Wind_Speed
7 7 6 5 5 5 5 4 4 4 4 4 5 5 5 5 5 5 5 4 4 4 4 4 4 4 4 6 7 7 7 7 8 8 8 8 8 8 7 7 7 7 7 7 7 7 7 7 6 6 5 5 6 6 6 6 7 8 8 8 8 8 8 9 7 6 5 6 6
8 7 7 6 6 5 5 5 5 5 5 5 5 5 5 5 5 5 5 5 4 4 4 4 5 5 6 7 7 7 7 7 7 7 7 7 7 7 7 7 7 7 7 7 7 7 7 7 7 6 6 5 6 6 7 7 8 9 10 10 8 7 6 6 5 5 5 6 7
7 7 7 7 7 6 5 5 5 5 5 5 4 4 4 4 4 4 4 4 5 5 4 4 4 5 6 6 6 6 6 6 6 6 6 6 6 6 7 7 7 8 8 8 8 7 7 8 7 7 6 6 7 8 9 9 9 9 9 9 7 5 4 4 4 4 4 4 8
7 7 7 7 7 6 5 5 5 6 5 4 4 4 4 3 3 3 4 4 4 4 4 3 4 4 4 5 5 5 5 6 6 6 6 6 6 6 7 7 8 8 8 8 9 9 9 9 8 7 7 8 10 10 10 9 8 7 6 6 5 4 4 4 5 6 6 5 7
7 7 6 6 7 6 5 5 6 5 5 4 4 3 3 3 3 3 4 4 4 3 3 3 3 3 4 4 5 6 6 6 5 5 5 6 6 7 8 8 8 9 9 9 9 10 10 10 8 7 7 8 8 9 9 9 9 7 6 5 4 4 5 6 7 6 5 5 5
7 7 7 6 7 6 5 5 6 5 4 3 3 4 4 4 4 4 4 4 4 3 3 3 3 4 4 5 6 6 6 6 6 6 6 7 7 8 8 9 9 9 9 9 10 10 10 9 8 7 7 6 7 8 9 10 9 8 7 6 5 6 7 10 8 6 4 3 2
7 7 7 7 7 7 6 6 6 5 4 3 4 4 4 4 4 5 5 5 4 4 4 4 5 5 6 6 6 6 6 6 6 7 7 7 7 8 8 8 9 9 9 10 10 10 9 8 7 7 6 6 6 7 8 8 8 8 8 7 6 6 7 7 5 3 2 2 3
6 6 6 6 7 7 7 7 6 6 5 4 4 4 5 5 6 6 6 6 5 5 5 5 6 6 7 7 7 7 7 7 7 7 7 7 8 8 8 9 9 10 10 11 11 11 10 8 6 6 5 5 5 6 7 9 9 9 9 9 7 5 3 2 2 3 4 5 6
5 5 5 5 6 6 6 7 7 6 6 5 5 5 5 6 7 8 8 6 6 5 6 6 7 7 8 8 8 8 8 8 8 9 9 9 10 10 11 10 11 12 12 11 11 12 11 8 6 6 5 5 5 6 7 9 9 10 9 7 5 3 3 3 4 5 6 7 8
5 5 5 5 6 6 6 7 7 7 8 8 8 8 8 8 9 9 8 7 7 7 8 8 9 9 10 10 10 9 9 9 9 10 11 11 12 13 13 12 13 13 13 12 11 11 10 8 7 6 6 5 6 7 8 9 9 9 8 5 5 5 6 6 7 7 7 6 7
4 4 5 5 6 7 7 8 8 9 10 10 11 11 11 11 11 10 9 8 9 10 10 10 10 10 10 10 10 10 10 10 10 11 12 13 13 14 14 13 14 13 13 12 11 9 8 8 7 7 7 7 7 8 10 11 10 10 9 7 7 8 9 10 9 8 8 7 7
4 5 5 6 7 8 8 9 9 10 11 11 12 12 11 11 12 11 11 11 11 11 11 11 11 10 10 9 9 10 10 10 11 11 11 12 13 13 13 13 13 13 13 12 11 10 9 10 10 10 10 10 9 9 11 13 12 12 11 11 11 11 12 13 12 10 9 9 9
5 5 6 7 8 9 9 9 9 10 11 12 12 11 11 11 12 12 12 12 11 10 10 10 10 10 9 9 9 9 9 9 9 9 10 11 11 12 12 12 13 13 13 13 13 12 12 12 13 13 13 13 11 11 13 14 13 13 13 13 13 13 14 14 13 11 10 10 9
6 7 7 8 10 10 10 10 9 10 11 12 12 11 11 11 11 12 11 11 11 10 9 9 8 8 9 9 9 9 9 8 9 9 10 10 11 11 11 12 13 13 13 13 13 14 14 13 14 14 14 14 13 13 13 14 13 13 13 13 13 13 12 12 11 10 10 10 10
7 8 9 11 11 11 11 11 10 10 11 12 12 11 10 10 10 10 10 11 10 9 9 9 8 8 8 9 9 9 9 9 10 10 10 10 10 11 11 11 12 12 12 12 12 12 13 13 13 13 13 13 13 13 13 13 12 12 12 12 11 11 10 10 9 9 9 9 9
9 10 11 12 13 12 11 10 9 9 10 10 11 10 10 9 9 9 10 10 9 8 8 8 8 8 8 8 9 9 9 10 10 10 10 10 10 10 10 10 10 10 10 10 10 10 10 10 10 10 10 11 11 11 11 11 11 11 11 11 10 10 9 9 9 8 8 8 8
10 11 12 13 13 12 11 10 9 9 9 10 10 9 9 8 8 9 9 9 8 8 8 8 8 7 7 7 8 8 8 8 9 9 9 9 9 9 9 9 8 8 8 8 8 8 8 7 7 8 8 9 9 9 10 10 10 10 10 10 10 9 9 8 8 8 8 8 7
11 12 12 12 12 12 11 10 9 9 9 9 9 8 8 8 8 8 8 8 8 8 8 7 7 6 7 7 7 7 7 7 7 7 7 7 7 7 7 6 6 6 5 5 5 5 5 5 5 6 6 7 7 7 7 8 8 8 8 8 8 8 8 8 8 7 7 7 7
11 11 11 11 11 10 10 9 9 8 8 8 8 8 8 9 8 8 7 7 7 6 6 6 6 6 6 7 7 6 6 6 6 6 6 5 5 5 5 5 4 4 3 3 3 3 3 4 4 4 5 5 5 5 5 5 5 5 6 6 6 7 7 7 7 7 7 7 7
10 10 10 10 10 9 9 8 8 8 7 7 8 8 8 7 7 7 6 6 5 5 5 5 6 6 6 6 7 6 5 5 5 5 5 4 4 4 5 4 4 3 3 2 2 2 3 3 3 4 4 4 4 4 4 4 4 4 4 4 5 5 6 6 6 6 6 7 7
9 9 9 9 9 8 8 7 7 7 6 6 6 6 6 6 6 6 5 5 5 5 5 5 6 6 6 6 6 6 5 4 5 5 5 5 5 5 4 4 4 4 3 2 2 2 2 2 3 3 4 4 4 4 4 4 4 4 5 4 5 5 6 6 6 6 6 6 7
7 8 8 8 8 7 7 6 6 6 6 6 5 5 5 5 5 5 5 5 5 5 5 5 5 6 6 6 5 5 5 4 4 5 5 5 5 5 5 4 4 5 4 3 2 2 2 2 3 3 4 4 5 5 5 5 5 5 6 6 6 6 7 7 6 6 6 6 6
7 8 8 7 7 6 6 6 5 5 5 5 5 5 5 5 4 4 5 5 5 5 5 4 4 5 5 5 5 5 5 4 4 5 5 5 5 5 5 5 5 5 5 5 3 2 1 2 2 3 4 4 5 5 5 6 6 6 6 7 7 8 8 8 8 8 8 8 7
8 8 7 5 5 5 5 5 5 5 5 5 5 5 4 4 4 5 5 5 5 5 5 4 4 4 4 5 5 5 5 4 5 5 6 6 6 6 6 5 5 6 6 5 4 2 1 1 2 3 4 4 4 5 5 6 6 6 7 8 8 9 9 9 9 9 10 10 9
8 7 6 5 5 4 5 5 5 5 5 4 4 4 4 4 4 4 4 5 5 5 5 4 4 4 4 4 4 5 4 4 5 5 6 6 7 7 6 6 5 5 5 6 6 3 2 3 3 3 3 4 4 4 5 5 6 7 7 8 9 9 9 10 10 10 11 11 10
7 6 5 4 4 4 4 4 4 4 4 4 4 4 4 4 4 4 4 4 4 4 4 4 4 4 4 4 4 4 4 4 4 5 5 6 7 7 6 5 5 4 5 6 5 5 5 5 4 3 3 3 3 4 4 5 6 6 7 8 8 8 9 10 10 11 11 11 11
5 4 4 3 4 4 4 4 3 3 3 4 4 4 4 4 4 4 4 4 3 3 3 3 3 3 3 3 4 4 5 4 4 5 5 6 6 6 6 5 4 4 4 6 7 7 6 5 4 4 3 2 2 3 3 4 5 6 6 6 7 7 8 9 10 10 11 11 11
4 3 3 3 4 3 3 3 3 3 3 3 3 3 3 4 4 4 4 4 4 3 3 3 3 3 3 3 4 5 5 5 5 5 5 5 6 6 5 4 3 3 4 7 6 5 4 3 3 3 3 2 2 2 2 3 4 4 4 5 5 6 7 8 8 9 10 10 11
4 3 3 3 3 3 3 3 3 3 3 3 3 3 3 4 4 4 4 4 4 4 3 3 3 2 3 3 4 5 5 6 5 5 5 5 5 5 4 3 2 2 4 5 4 3 2 2 2 3 3 3 1 1 1 2 2 3 3 4 5 5 6 7 7 8 9 9 10
3 3 3 3 3 3 3 2 2 2 2 2 3 3 4 4 4 4 4 4 4 4 4 3 3 3 4 5 5 5 5 6 5 5 4 4 4 3 3 1 1 2 3 3 3 2 2 1 1 2 3 3 2 1 1 1 2 3 3 4 5 6 6 7 8 8 9 9 10
3 3 3 3 3 3 3 2 2 2 2 3 3 4 4 4 4 4 4 4 4 4 4 3 4 5 5 5 5 5 6 6 5 4 3 3 3 3 2 1 1 2 3 4 3 3 2 1 1 2 3 3 3 2 1 1 2 2 3 4 5 6 7 7 7 8 9 10 11
3 3 3 3 3 3 3 3 3 3 3 3 4 4 4 4 4 4 4 4 4 4 4 4 4 5 6 6 5 5 5 5 4 3 3 2 2 2 2 2 0 2 4 5 4 3 2 1 0 2 3 4 3 3 2 2 2 3 3 4 5 6 6 7 7 8 10 11 11
3 3 3 3 3 3 3 3 3 3 4 4 4 5 5 5 5 5 5 4 4 4 4 4 4 4 4 5 4 4 4 4 3 3 3 2 1 2 2 2 1 2 4 5 4 3 2 1 1 2 4 4 3 3 2 2 2 3 3 4 4 5 6 6 7 8 9 10 10
2 2 2 2 3 3 3 3 3 4 4 5 5 6 6 6 6 6 5 4 3 3 3 3 3 3 3 3 3 3 3 3 3 3 3 2 2 2 2 3 1 3 5 5 4 4 3 2 1 2 3 4 3 2 2 3 3 3 3 4 4 5 5 6 6 7 7 9 9
1 2 2 2 2 3 3 3 4 4 5 5 6 6 6 6 6 6 5 4 3 2 2 2 3 3 3 3 3 3 3 4 4 4 3 3 2 2 3 3 2 3 5 6 5 5 3 2 2 2 3 3 2 1 2 3 3 3 4 4 4 5 5 5 5 6 6 7 8
1 1 1 2 3 3 3 4 4 4 5 5 6 6 6 5 5 5 4 3 2 2 3 4 4 5 5 5 4 4 4 4 4 4 4 4 3 3 3 4 3 3 4 6 6 5 4 2 2 3 4 2 2 1 2 2 2 3 3 4 4 4 4 4 5 5 6 6 7
1 1 1 2 3 3 4 4 4 4 4 5 4 4 5 5 5 4 4 3 3 4 5 5 5 6 6 6 6 5 5 5 5 5 6 5 5 4 4 5 5 5 5 5 5 4 3 1 3 4 4 3 2 2 2 2 2 2 3 3 4 4 4 4 4 5 5 6 7
1 1 1 2 3 4 4 4 4 4 4 4 3 3 4 4 4 4 4 3 4 4 5 5 5 6 7 7 7 7 8 8 7 7 8 8 7 7 6 6 7 8 8 8 3 1 1 3 4 5 4 2 2 2 2 2 3 3 3 3 3 4 4 4 4 4 5 6 9
2 2 2 3 4 4 4 4 3 3 3 3 3 3 3 3 3 3 3 3 3 4 4 5 5 6 6 7 7 8 9 9 9 9 9 9 9 9 9 8 8 8 10 11 6 3 2 2 4 5 4 2 2 2 2 2 3 3 3 3 4 4 4 4 4 4 5 6 11
3 3 3 4 5 5 4 3 3 3 3 2 3 3 3 3 3 3 3 3 3 4 4 5 6 6 6 7 7 8 9 9 9 9 9 9 10 10 10 7 7 7 8 10 8 4 2 2 4 5 4 2 2 2 2 3 3 4 4 4 4 4 5 5 5 5 5 6 9
3 4 4 5 5 4 4 3 3 3 3 3 3 3 3 2 2 2 3 3 4 4 4 4 5 6 6 6 7 7 8 8 8 8 8 9 9 9 8 6 6 6 6 8 8 5 3 3 5 6 5 2 2 2 2 3 4 4 5 5 5 5 5 5 5 5 5 6 6
Wind_Direction
33 33 34 33 29 25 20 13 8 3 358 353 344 337 332 327 323 322 324 330 336 346 357 11 15 16 16 15 9 2 356 353 348 343 338 331 324 319 315 312 312 312 311 308 307 307 308 312 311 306 299 293 288 285 282 281 280 278 274 269 265 261 257 251 245 243 249 261 267
33 33 32 31 26 22 16 7 1 356 352 348 341 335 333 333 334 337 343 349 358 6 13 14 13 10 7 3 355 349 344 342 338 334 330 325 322 322 323 325 327 328 328 326 325 324 323 322 318 313 307 303 299 296 293 291 288 285 280 273 268 264 260 256 251 251 256 260 261
32 29 27 25 21 17 11 3 355 349 345 341 338 338 341 347 352 356 359 2 9 14 15 9 5 3 1 355 349 344 339 335 333 331 329 328 330 333 336 338 337 335 334 332 330 327 323 321 317 314 311 310 308 304 300 296 293 290 285 281 278 276 275 275 278 278 276 267 264
29 27 24 21 17 13 6 357 348 343 340 338 338 345 354 3 8 8 7 7 13 15 12 3 355 353 350 346 339 334 330 327 328 329 331 333 338 340 340 340 337 335 332 328 324 320 317 315 312 310 307 305 302 299 296 294 295 294 293 292 291 292 294 296 291 289 286 280 270
21 20 18 15 10 4 358 350 344 339 336 337 347 358 6 9 8 7 7 8 6 3 357 353 345 338 332 330 327 326 326 329 334 339 342 344 343 342 340 338 334 329 325 320 316 312 309 308 305 299 294 290 287 285 285 287 289 291 292 295 300 301 297 290 282 280 280 279 271
13 11 9 6 2 357 351 346 340 336 335 343 1 9 8 4 2 2 1 359 353 347 344 342 334 328 327 328 329 332 336 341 348 351 351 348 343 340 336 331 326 322 317 313 310 307 305 303 298 292 287 284 283 284 286 289 290 291 291 292 293 287 280 274 273 274 275 271 272
10 7 4 359 356 350 344 339 335 334 337 349 7 11 7 1 359 357 355 353 349 345 341 335 333 332 334 338 343 347 350 352 352 351 349 343 337 333 329 324 320 317 315 314 313 310 308 304 299 298 299 303 305 307 310 312 311 308 304 298 292 282 274 271 276 285 300 327 330
7 3 359 353 348 342 337 333 333 335 339 351 5 10 8 2 359 356 354 353 349 342 338 337 338 341 346 353 356 357 356 354 350 347 343 338 333 330 327 324 323 322 322 321 319 317 314 310 308 313 323 334 333 332 331 331 326 319 313 307 305 303 300 294 326 350 354 348 331
0 355 350 345 340 335 333 335 341 347 352 358 6 10 11 9 5 2 359 354 348 346 346 348 351 356 1 5 3 0 358 355 351 347 345 343 341 339 337 335 333 331 329 327 323 320 319 318 327 339 349 352 345 340 339 339 333 328 323 320 330 354 21 34 18 6 355 341 321
352 346 342 338 334 336 341 350 0 8 12 12 14 17 19 19 16 12 7 1 0 1 2 1 2 5 7 8 4 2 0 359 357 354 352 351 349 347 345 342 339 336 332 330 327 325 327 336 350 358 359 357 352 352 353 355 351 346 343 344 358 7 11 11 7 6 2 351 333
344 340 338 337 341 351 2 13 21 25 25 23 22 23 25 25 23 20 16 14 12 10 8 5 6 7 8 7 4 3 2 3 1 359 357 355 354 352 350 347 345 342 338 337 337 340 348 2 5 6 6 8 8 10 12 12 10 6 4 4 7 12 17 20 19 19 21 21 19
340 339 341 348 2 15 24 31 34 33 30 28 26 25 25 26 24 21 18 17 14 10 7 4 5 6 7 5 3 2 3 4 4 3 1 360 358 357 356 355 354 353 353 354 359 4 10 15 14 14 16 19 23 24 23 21 20 18 16 17 21 25 27 26 23 23 23 25 29
344 347 356 9 24 32 36 37 37 33 30 28 26 24 22 22 21 19 17 15 12 8 4 1 2 4 5 2 1 2 4 6 8 9 9 8 7 5 5 6 7 8 10 13 15 17 18 18 18 20 22 25 27 28 27 26 25 24 24 25 29 31 31 28 24 22 20 19 22
355 4 16 30 37 38 37 34 33 31 28 26 24 21 19 18 18 17 16 13 10 7 2 358 0 3 5 2 2 3 6 11 15 18 19 19 17 15 15 16 17 19 20 22 21 20 19 18 18 20 22 25 27 29 29 29 29 28 27 27 29 30 29 26 23 20 17 15 15
11 23 33 40 40 38 35 32 30 28 26 24 21 18 16 15 15 16 15 11 9 6 3 359 1 4 6 6 5 7 11 16 21 23 25 25 24 23 23 24 24 25 25 25 24 22 21 19 19 19 21 23 25 27 28 29 28 26 24 21 20 18 17 15 12 10 9 6 4
28 35 40 42 40 38 35 32 29 27 24 22 19 17 16 14 14 15 14 11 9 8 7 5 5 6 8 9 11 13 15 19 22 24 24 24 25 26 29 30 30 29 29 28 27 25 23 22 21 21 21 22 22 23 24 24 22 19 15 11 7 5 3 1 359 358 357 355 353
37 40 41 41 40 39 37 34 31 27 25 22 19 18 17 16 15 16 16 14 13 13 13 11 11 10 10 12 16 17 17 18 21 22 22 22 23 26 30 34 34 33 32 31 30 27 25 23 23 23 23 23 22 21 21 20 18 13 9 4 0 356 353 350 349 347 345 344 340
40 41 41 41 41 40 39 36 34 30 27 24 22 21 22 23 21 21 21 20 20 18 16 14 14 13 13 14 17 18 18 16 18 19 19 19 21 24 27 31 33 34 34 35 33 29 25 21 20 21 22 23 23 22 20 19 15 9 3 357 352 347 343 340 338 336 334 331 327
42 43 43 42 42 41 40 38 36 33 30 29 28 28 29 30 29 28 25 23 22 22 19 14 12 12 14 15 16 16 15 12 11 12 13 13 14 16 17 17 19 22 27 29 27 22 14 9 10 13 16 19 20 19 18 16 10 2 353 345 339 334 330 327 326 324 322 320 318
47 47 47 46 45 43 41 40 38 37 35 34 34 33 34 35 34 31 26 20 18 19 18 15 10 9 10 10 10 8 6 3 1 1 1 1 1 1 1 357 356 357 359 4 1 359 356 354 358 2 7 10 10 8 5 0 351 341 332 324 319 316 313 311 311 311 311 312 312
52 53 52 51 48 46 43 41 41 40 39 38 37 35 35 35 34 31 24 15 12 13 15 14 10 7 4 3 1 359 355 350 351 351 350 349 349 347 346 343 340 338 336 336 336 336 338 341 345 350 353 355 353 350 346 340 333 326 320 314 311 308 305 303 302 303 303 304 303
59 58 56 53 51 49 45 43 42 41 40 38 35 34 32 31 30 26 20 13 11 10 10 9 6 2 358 355 353 349 347 344 345 343 341 340 338 336 333 332 330 327 323 317 312 310 317 331 338 343 344 343 341 338 335 333 330 327 324 321 318 316 314 312 309 306 303 299 296
63 61 58 54 51 49 46 42 41 39 37 34 30 28 26 24 22 18 14 12 10 7 3 0 357 353 349 346 345 343 341 340 338 335 333 331 329 328 327 326 324 320 315 308 297 291 300 328 339 341 341 339 335 333 332 333 333 332 331 329 328 327 327 326 324 322 319 316 311
64 61 58 53 49 47 44 41 37 35 31 27 23 20 18 15 14 13 11 9 6 2 358 352 346 341 338 337 336 336 335 335 331 329 327 326 324 322 322 321 319 314 309 302 295 289 297 355 349 346 343 340 337 336 336 338 339 338 336 335 335 334 334 334 333 333 332 330 329
63 61 57 51 48 45 42 40 36 31 25 19 16 13 11 8 8 8 7 3 358 354 350 344 337 332 330 329 328 327 327 325 323 321 320 320 319 318 318 318 318 316 313 309 310 321 20 42 17 0 349 344 342 342 343 343 342 341 340 338 337 337 336 335 335 334 333 332 331
59 58 54 50 47 43 40 39 34 27 18 11 10 8 5 2 2 2 0 354 346 342 338 335 328 324 320 321 320 318 316 313 312 310 310 310 311 311 313 316 321 324 329 337 358 30 52 47 30 15 0 351 349 348 347 345 342 341 340 338 337 336 335 334 332 331 330 328 326
54 53 50 48 45 42 38 35 30 22 13 7 5 2 359 357 357 355 349 339 330 325 323 321 314 310 308 310 310 308 303 299 297 296 296 297 300 303 307 316 330 343 5 25 47 57 61 50 36 27 19 6 358 352 346 339 336 336 336 335 334 333 331 329 327 326 324 323 321
48 45 43 44 41 36 31 28 24 16 7 0 357 354 353 353 352 346 336 323 316 313 310 303 296 295 299 303 298 293 291 290 289 288 288 290 293 296 303 321 346 20 46 59 69 73 72 62 46 36 29 20 2 345 334 328 328 329 330 329 328 326 326 325 324 323 323 321 319
45 40 38 38 35 27 21 19 14 5 354 346 344 344 346 348 343 336 327 319 313 306 298 287 287 293 299 295 290 288 287 286 284 283 285 288 291 296 303 328 17 64 78 84 94 101 99 83 55 36 25 16 353 318 309 314 321 323 325 326 326 326 327 327 327 327 326 325 324
41 38 35 34 28 20 9 1 353 343 337 334 336 338 339 337 333 326 319 312 303 292 283 278 288 293 292 288 288 289 289 286 284 283 284 284 286 291 300 334 96 118 125 128 134 134 126 101 57 23 4 351 323 296 287 302 319 327 329 330 330 332 333 334 334 334 335 336 336
39 34 30 29 20 6 350 338 332 329 330 332 333 332 330 325 319 311 303 296 289 284 281 284 290 290 288 287 290 290 289 288 288 285 279 271 269 278 294 341 133 153 160 166 167 165 158 140 50 357 339 325 308 292 289 313 333 337 337 336 337 339 341 342 342 343 344 345 345
33 26 20 20 7 348 332 326 327 328 330 331 329 325 319 312 301 293 286 283 284 287 290 293 292 292 292 294 295 295 294 292 289 281 267 249 252 280 313 345 194 183 185 185 188 184 177 167 352 331 323 316 306 299 301 335 344 343 340 339 340 342 345 347 347 347 347 347 346
29 19 10 5 349 333 325 324 325 326 328 328 323 317 311 303 297 291 288 284 284 286 287 287 288 291 294 298 302 306 306 300 287 274 263 252 270 316 332 335 271 209 201 199 200 198 195 196 293 316 317 317 313 312 322 349 351 347 343 341 341 342 345 347 348 349 348 347 345
21 10 358 347 334 326 323 321 322 323 324 322 317 312 308 304 301 298 293 286 282 278 276 274 280 286 293 301 312 321 323 317 305 297 295 301 329 339 335 322 278 219 210 210 211 212 213 223 275 311 324 331 324 329 345 358 351 345 339 335 335 339 343 347 349 350 349 347 343
10 358 345 332 324 321 319 317 317 317 317 316 313 311 310 309 306 301 295 287 284 285 290 293 302 312 319 322 326 331 334 332 324 319 315 318 333 337 328 314 283 227 212 215 218 221 223 233 281 326 340 344 336 347 0 2 346 335 330 329 331 334 339 345 349 349 348 346 341
351 344 332 319 315 312 311 309 309 311 312 312 312 313 314 315 314 310 306 303 312 326 331 330 336 339 339 335 334 334 336 338 333 328 324 323 331 331 323 313 300 269 237 222 223 225 230 248 326 349 355 354 349 354 0 357 336 325 322 324 325 328 333 341 345 346 345 341 336
305 308 307 306 304 301 298 297 301 305 308 308 310 314 318 321 322 323 326 336 348 352 350 348 348 347 345 342 341 342 344 348 347 343 339 336 336 333 328 324 321 315 302 267 239 232 239 320 354 359 357 352 348 347 347 343 330 323 320 322 320 323 328 336 340 340 338 333 327
271 270 279 287 287 286 286 288 292 297 299 302 306 312 318 322 324 327 333 348 358 357 355 353 352 350 349 350 352 354 357 359 359 357 353 349 346 344 343 342 339 336 334 331 308 275 311 0 355 354 353 348 341 339 338 337 331 326 323 322 323 324 327 331 334 333 328 322 320
260 259 264 270 273 275 276 279 280 280 284 293 302 308 313 316 315 319 329 349 1 2 0 357 354 354 356 1 7 9 8 5 4 4 2 359 358 358 359 359 355 352 353 358 10 25 26 353 335 335 339 343 336 333 335 338 333 330 328 330 332 331 328 328 327 324 318 312 314
257 258 260 263 264 265 267 268 266 265 269 283 294 299 299 298 299 313 332 357 6 9 6 1 357 358 3 11 17 17 13 9 7 6 6 6 7 9 11 11 8 5 5 11 19 23 0 301 302 312 323 335 336 338 343 346 342 339 337 337 337 334 329 325 321 316 311 305 308
259 261 261 261 261 259 257 258 264 269 274 281 281 277 275 280 298 327 352 10 12 12 10 7 5 7 12 20 23 21 17 11 8 7 7 7 10 12 14 15 14 10 8 9 8 1 332 294 299 312 324 342 353 0 0 358 350 344 340 337 336 333 328 321 317 313 307 302 301